This demonstration page uses our WeatherBlox Daily Observations layout. Learn more.

Left ArrowRight Arrow

Hourly Observations for December 5, 2021

Temp ( °F °C ) Dew Point ( °F °C ) Humidity (%) Winds ( mph kmh ) Pressure ( in mb ) Visibility ( mi km ) Precip ( " mm )
12:53 am 00:53 Clear 16 -8.9 15 -9.4 96 96 WSW 8 13 29.91 1013 10 16 0.00 0.00
1:53 am 01:53 Clear 19 -7.2 16 -8.9 88 88 WNW 7 11 29.92 1013 10 16 0.00 0.00
2:53 am 02:53 Clear 19 -7.2 12 -11.1 74 74 NW 20 31 29.94 1014 10 16 0.00 0.00
3:53 am 03:53 Partly Cloudy 17 -8.3 12 -11.1 80 80 WNW 10 17 30.00 1016 10 16 0.00 0.00
4:03 am 04:03 Mostly Cloudy 18 -7.8 13 -10.6 81 81 WSW 6 9 30.09 1019 10 16 0.00 0.00
4:11 am 04:11 Mostly Cloudy 17 -8.3 14 -10 88 88 S 6 9 30.09 1019 10 16 0.00 0.00
4:53 am 04:53 Cloudy 20 -6.7 16 -8.9 85 85 undefined N/A 30.04 1017 10 16 0.00 0.00
5:49 am 05:49 Partly Cloudy 18 -8 12 -11 79 79 NW 17 28 30.15 1021 10 16 0.00 0.00
5:53 am 05:53 Mostly Clear 17 -8.3 12 -11.1 80 80 NW 22 35 30.07 1018 10 16 0.00 0.00
6:53 am 06:53 Clear 16 -8.9 12 -11.1 84 84 NW 17 28 30.14 1021 10 16 0.00 0.00
7:53 am 07:53 Clear 14 -10 10 -12.2 84 84 NW 18 30 30.22 1023 8 13 0.00 0.00
8:53 am 08:53 Sunny 12 -11.1 6 -14.4 77 77 NW 24 39 30.30 1026 10 16 0.00 0.00
9:53 am 09:53 Mostly Sunny 11 -11.7 5 -15 77 77 Calm 30.42 1030 10 16 0.00 0.00
10:04 am 10:04 Mostly Cloudy 12 -11 5 -15 73 73 WNW 7 11 30.50 1033 10 16 0.00 0.00
10:53 am 10:53 Cloudy 11 -11.7 4 -15.6 73 73 WNW 5 7 30.44 1031 10 16 0.00 0.00
11:53 am 11:53 Mostly Cloudy 13 -10.6 4 -15.6 67 67 WNW 13 20 30.46 1032 10 16 0.00 0.00
12:04 pm 12:04 Partly Cloudy 13 -10.6 4 -15.6 67 67 NW 20 31 30.55 1035 9 14 0.00 0.00
12:11 pm 12:11 Mostly Cloudy 12 -11.1 5 -15 73 73 NW 17 28 30.57 1035 9 14 0.00 0.00
12:20 pm 12:20 Mostly Sunny 12 -11 3 -16 67 67 NW 17 28 30.57 1035 10 16 0.00 0.00
12:53 pm 12:53 Mostly Cloudy 12 -11.1 5 -15 73 73 WNW 17 28 30.49 1033 10 16 0.00 0.00
1:53 pm 13:53 Cloudy 11 -11.7 4 -15.6 73 73 WNW 15 24 30.50 1033 10 16 0.00 0.00
2:53 pm 14:53 Cloudy 10 -12.2 3 -16.1 73 73 WNW 15 24 30.53 1034 10 16 0.00 0.00
3:53 pm 15:53 Cloudy 7 -13.9 0 -17.8 73 73 W 13 20 30.57 1035 10 16 0.00 0.00
4:53 pm 16:53 Cloudy 7 -13.9 0 -17.8 73 73 W 8 13 30.57 1035 10 16 0.00 0.00
5:53 pm 17:53 Cloudy 6 -14.4 -2 -18.9 69 69 W 14 22 30.59 1036 10 16 0.00 0.00
6:53 pm 18:53 Cloudy 5 -15 -1 -18.3 76 76 W 9 15 30.58 1036 10 16 0.00 0.00
7:53 pm 19:53 Cloudy 3 -16.1 -2 -18.9 79 79 WSW 6 9 30.59 1036 10 16 0.00 0.00
8:53 pm 20:53 Cloudy 0 -17.8 -5 -20.6 79 79 S 6 9 30.59 1036 10 16 0.00 0.00
9:53 pm 21:53 Cloudy 0 -17.8 -5 -20.6 79 79 SSW 7 11 30.57 1035 10 16 0.00 0.00
10:53 pm 22:53 Mostly Cloudy -2 -18.9 -6 -21.1 83 83 W 6 9 30.55 1035 10 16 0.00 0.00
11:53 pm 23:53 Mostly Cloudy -2 -18.9 -6 -21.1 83 83 W 7 11 30.53 1034 10 16 0.00 0.00

Powered by AerisWeather